Location: Airport Park
(38.3212°N, 88.8667°W)
Time: 04:10:15
(UTC+00:00)

Daily predictions for brighter satellites

Satellite Brightness Start Highest point End
(mag) Time Altitude Azimuth Time Altitude Azimuth Time Altitude Azimuth
Cosmos 1726 2.8 01:47:43 10° NNE 01:51:04 34° ENE 01:54:25 10° SE
ASTRO E2 4.1 01:48:41 10° SW 01:51:40 20° SSE 01:54:39 10° ESE
Cosmos 1452 Rocket 3.8 01:47:46 10° S 01:52:49 49° ESE 01:57:53 10° NNE
BREEZE-M DEB (TANK) 2.8 01:51:32 10° W 01:53:25 29° SW 01:56:32 10° SSE
BREEZE-M DEB (TANK) 1.7 01:51:31 10° SW 01:53:53 69° SE 01:56:38 10° ENE
Cosmos 292 Rocket 3.8 01:50:55 10° S 01:55:44 75° ESE 02:00:34 10° NNE
Cosmos 1766 4.2 01:53:53 10° NNW 01:57:37 49° W 02:01:22 10° SSW
FALCON 9 DEB 4.1 01:55:41 10° S 01:58:10 22° SE 02:00:40 10° ENE
Cosmos 2360 Rocket 2.6 01:58:58 10° S 02:04:12 41° ESE 02:09:27 10° NE
SL-16 R/B 2.4 02:01:28 10° SSW 02:07:07 80° WNW 02:12:50 10° NNE
Cosmos 2322 Rocket 2.2 02:01:57 10° SSW 02:07:38 80° ESE 02:13:22 10° NNE
Cosmos 1470 2.8 02:04:06 10° N 02:08:03 65° E 02:11:57 10° SSE
OBJECT-B 2.1 02:06:15 10° S 02:09:16 38° W 02:12:18 10° NNW
Meteor 2-10 4.0 02:04:17 10° N 02:09:23 87° W 02:14:36 10° S
ATLAS 3B R/B 3.3 02:06:08 10° S 02:11:40 30° ESE 02:17:18 10° NE
FALCON 9 DEB 2.9 02:11:59 10° SSW 02:14:59 51° SE 02:18:00 10° ENE
Cosmos 1455 Rocket 4.4 02:12:25 10° NNE 02:16:02 24° ENE 02:19:00 13° ESE
Okean 1 Rocket 3.0 02:11:56 10° N 02:16:19 80° E 02:20:43 10° S
Cosmos 1378 Rocket 4.3 02:12:04 10° SSW 02:16:19 56° W 02:20:39 10° N
SJ-6B 4.1 02:15:13 10° S 02:19:05 40° W 02:22:55 10° NNW
MOS 1 4.4 02:15:12 10° SSE 02:20:54 81° WSW 02:26:38 10° NNW
FALCON 9 DEB 3.1 02:18:54 10° SSW 02:21:52 44° SE 02:24:51 10° ENE
FALCON 9 DEB 2.8 02:22:10 10° SW 02:25:13 63° SE 02:28:18 10° NE
IGS 5A 3.6 02:22:05 12° SSE 02:25:49 60° ENE 02:29:55 10° N
Resurs 1-3 3.9 02:21:31 10° S 02:25:53 70° W 02:30:15 10° NNW
USA 186 4.5 02:25:09 10° SW 02:26:41 14° W 02:28:18 10° WNW
COSMOS 2428 4.0 02:28:13 15° SE 02:30:58 20° E 02:35:03 10° NE
Cosmos 1908 4.4 02:29:22 10° NNE 02:32:40 26° ENE 02:34:33 18° ESE
Cosmos 1461 3.9 02:29:09 10° NNW 02:32:57 33° NE 02:35:32 17° ESE
Cosmos 2237 4.3 02:29:41 10° SSW 02:35:23 85° WNW 02:41:06 10° NNE
Terra 3.9 02:33:43 10° E 02:36:06 14° ENE 02:38:29 10° NNE
Cosmos 1315 Rocket 3.3 02:32:02 10° NNW 02:36:07 63° W 02:40:09 10° S
Cosmos 1626 3.2 02:36:00 20° SE 02:37:33 27° E 02:40:43 10° NNE
ATLAS CENTAUR R/B 3.6 02:34:44 10° N 02:37:44 18° NE 02:40:49 10° E
Cosmos 1707 3.7 02:35:04 10° SSW 02:38:50 49° W 02:42:37 10° N
Cosmos 2100 Rocket 4.4 02:32:45 10° N 02:38:52 47° ENE 02:43:22 18° SE
SPOT 5 4.4 02:36:46 14° ESE 02:39:38 23° ENE 02:43:26 10° NNE
Cosmos 1741 Rocket 4.2 02:34:48 10° N 02:40:01 59° ENE 02:43:44 19° SE
Cosmos 1844 Rocket 3.3 02:35:00 10° N 02:40:23 43° ENE 02:44:09 19° SE
Cosmos 1025 Rocket 3.7 02:38:31 19° SE 02:41:06 35° E 02:45:05 10° NNE
Meteor 2-20 Rocket 4.4 02:36:09 10° S 02:42:17 87° E 02:48:24 10° N
Ariane Rocket 3.8 02:40:09 10° S 02:45:02 48° W 02:49:59 10° NNW
USA 215 4.4 02:41:07 10° E 02:45:19 18° ESE 02:45:41 18° SE
SPOT 3 Rocket 3.5 02:41:59 15° SSE 02:46:22 87° ENE 02:51:35 10° NNW
SL-4 R/B 3.5 02:49:24 19° E 02:49:24 19° E 02:51:08 10° E
CZ-2C R/B 3.7 02:45:16 10° NNE 02:50:03 79° ESE 02:54:48 10° S
Cosmos 2173 Rocket 4.2 02:46:50 10° N 02:53:07 57° E 02:57:24 21° SSE
CARTOSAT-1 4.3 02:52:06 24° SE 02:54:09 39° ENE 02:58:10 10° N
Cosmos 2263 Rocket 3.9 02:49:45 10° NW 02:54:31 28° WSW 02:59:17 10° SSW
Lacrosse 5 2.7 02:50:34 10° NW 02:55:20 42° SW 02:58:35 19° S
MetOp-B 4.1 02:52:22 18° SSE 02:56:25 87° ENE 03:01:48 10° NNW
Lacrosse 5 rocket 2.5 02:52:59 10° WSW 02:56:31 40° NW 02:59:58 10° NNE
Cosmos 1758 4.1 02:52:51 10° NNW 02:56:41 48° W 03:00:01 13° SSW
ATLAS 2A CENTAUR R/B 3.7 02:47:09 10° SW 03:00:51 27° S 03:03:31 22° SSE
USA 245 4.0 02:58:44 24° SSE 03:01:43 73° ENE 03:07:25 10° N
Landsat 7 4.2 02:59:40 16° S 03:03:24 61° W 03:08:08 10° NNW
Cosmos 1975 Rocket 3.5 02:59:19 10° SSW 03:03:36 62° W 03:07:58 10° N
BREEZE-M DEB (TANK) 3.6 03:05:21 10° NW 03:07:53 23° NNE 03:08:35 20° NE
Cosmos 405 4.3 03:05:38 10° NNE 03:08:30 24° ENE 03:08:44 24° E
Cosmos 1110 Rocket 4.3 03:03:44 10° SSW 03:08:52 67° WNW 03:14:03 10° NNE
Cosmos 2333 4.1 03:03:16 10° SSW 03:09:00 81° ESE 03:14:45 10° NNE
Resurs 01 Rocket 2.8 03:06:34 13° SSW 03:10:12 39° W 03:14:21 10° NNW
Cosmos 1725 Rocket 4.5 03:04:48 10° N 03:10:39 43° ENE 03:13:33 27° SE
SL-14 R/B 3.5 03:12:10 37° SE 03:13:21 51° E 03:17:16 10° NNE
Meteor 2-5 Rocket 4.1 03:14:25 29° SE 03:16:41 44° E 03:21:57 10° NNE
H-2A R/B 4.4 03:15:26 10° NE 03:18:57 29° E 03:18:57 29° E
Cosmos 1953 2.7 03:17:39 10° NNW 03:21:40 62° W 03:23:32 29° SSW
Cosmos 2333 Rocket 2.1 03:16:41 10° SSW 03:22:26 85° ESE 03:28:12 10° NNE
Cosmos 1674 4.2 03:19:17 10° SW 03:22:40 34° WNW 03:26:05 10° NNW
Cosmos 2219 Rocket 2.1 03:19:18 15° SSW 03:24:03 75° ESE 03:29:45 10° NNE
BREEZE-M DEB (TANK) 3.3 03:25:19 10° W 03:27:32 33° NNW 03:31:06 10° NE
Cosmos 1802 Rocket 4.0 03:23:45 10° N 03:30:05 88° E 03:33:34 29° S
ASTRO E2 4.1 03:28:03 10° WSW 03:30:13 24° SW 03:30:13 24° SW
Meteor 2-11 Rocket 4.5 03:28:08 10° N 03:34:14 78° W 03:37:36 28° S
Cosmos 1459 Rocket 4.1 03:28:34 10° NNW 03:34:35 68° W 03:38:14 25° S
Cosmos 1844 3.6 03:29:12 10° NNW 03:34:48 83° WSW 03:37:07 37° SSE
Cosmos 1300 2.7 03:38:13 10° N 03:41:59 59° E 03:42:05 59° E
Cosmos 2237 Rocket 3.1 03:44:17 30° E 03:44:17 30° E 03:48:59 10° NE
Geosat 3.9 03:42:57 45° SE 03:44:31 80° ENE 03:49:34 10° NNW
ERS-1 Rocket 2.9 03:44:13 42° S 03:45:56 83° WSW 03:51:00 10° NNW
ARIANE 5 R/B 3.1 03:45:36 37° SSW 03:47:03 55° W 03:51:27 10° NNW
Cosmos 1340 3.4 03:46:02 34° SW 03:47:15 49° W 03:50:56 10° N
Cosmos 2360 Rocket 4.2 03:43:33 10° WSW 03:48:17 27° WNW 03:53:03 10° N
Spot 2 Rocket 4.1 03:46:39 30° SSW 03:48:51 51° W 03:53:47 10° NNW
Cosmos 1544 Rocket 4.2 03:45:06 10° NNW 03:49:25 51° W 03:50:53 35° SW
Meteor 1-24 Rocket 3.5 03:49:56 45° S 03:51:34 74° E 03:57:01 10° NNE
NOSS 0 Rocket 3.9 03:58:46 44° SSE 04:00:28 60° ESE 04:06:35 10° NNE
ATLAS 3B R/B 3.5 03:55:45 10° SW 04:02:01 48° NW 04:08:30 10° NNE
SL-8 R/B 3.5 03:57:39 10° WNW 04:02:26 76° SW 04:02:55 68° SSE
Cosmos 2061 Rocket 4.4 04:04:04 10° NNW 04:10:20 58° W 04:13:09 33° SSW
Terra 2.0 04:12:29 52° SW 04:13:18 61° W 04:18:01 10° NNW
Cosmos 389 Rocket 3.7 04:10:21 10° N 04:12:39 34° NNE 04:12:39 34° NNE
COSMOS 2428 3.4 04:10:08 15° SW 04:14:46 52° WNW 04:20:23 10° NNE
Cosmos 1346 Rocket 2.9 04:17:00 74° N 04:17:00 74° N 04:20:42 10° N
ATLAS CENTAUR R/B 1.8 04:12:31 10° NW 04:16:53 56° WSW 04:16:58 56° WSW
SPOT 5 3.9 04:16:00 33° SW 04:17:26 40° W 04:22:06 10° NNW
Cosmos 2233 Rocket 3.9 04:11:44 10° N 04:17:55 85° W 04:19:39 50° S
Cosmos 1447 Rocket 4.4 04:18:38 48° S 04:20:34 88° W 04:26:47 10° N
Cosmos 2278 Rocket 2.7 04:15:58 10° N 04:21:27 47° ENE 04:22:35 42° E
Cosmos 1844 Rocket 4.2 04:19:28 10° NW 04:23:58 25° WSW 04:25:49 21° SW
SL-4 R/B 2.7 04:23:58 14° WSW 04:27:18 50° NW 04:31:06 10° NE
USA 215 3.1 04:22:19 10° NE 04:28:53 81° SE 04:32:56 25° SW
Cosmos 2228 3.0 04:24:49 10° N 04:29:00 80° NNW 04:29:00 80° NNW
Cosmos 1867 3.4 04:36:32 10° NNW 04:42:03 89° WSW 04:42:25 79° SSE
Cosmos 1943 Rocket 4.3 04:46:44 10° NNE 04:50:06 16° NE 04:52:30 13° E
Cosmos 1607 4.2 04:44:11 10° NNW 04:50:31 60° NE 04:51:54 49° ESE
Meteor 2-10 Rocket 3.8 04:46:06 10° NNW 04:50:59 51° W 04:51:13 50° WSW
Cosmos 968 Rocket 4.2 04:48:33 10° NNW 04:53:20 40° WSW 04:53:28 40° WSW
Cosmos 2346 Rocket 4.4 04:53:35 63° ESE 04:54:08 66° E 05:00:15 10° NNE
Cosmos 1980 4.0 04:53:24 47° WSW 04:54:49 63° WNW 05:00:29 10° NNE
Cosmos 1486 Rocket 4.3 04:50:34 10° NNW 04:55:39 54° WSW 04:55:40 54° WSW
Okean 1-7 Rocket 4.1 05:02:36 56° NNE 05:02:36 56° NNE 05:06:10 10° N
Cosmos 1464 Rocket 3.9 05:00:16 10° N 05:06:41 84° E 05:07:30 70° SSE
Cosmos 1455 3.6 05:03:53 10° NNW 05:06:21 37° NNW 05:06:21 37° NNW
ATLAS CENTAUR R/B 2.8 05:08:15 63° WSW 05:09:06 80° NW 05:19:34 10° NE
Spot 4 3.9 05:10:00 73° NNW 05:10:00 73° NNW 05:14:21 10° NNW
Cosmos 1354 Rocket 4.0 05:06:05 10° NNW 05:11:17 82° WNW 05:11:17 82° WNW
Cosmos 2058 Rocket 3.7 05:10:53 10° N 05:14:26 55° NNW 05:14:26 55° NNW
Meteor 2-1 Rocket 4.0 05:12:49 10° N 05:18:22 85° W 05:18:25 85° WSW
Cosmos 1816 Rocket 4.3 05:21:22 75° SE 05:21:46 78° E 05:27:53 10° N
SL-16 R/B 2.2 05:25:29 72° E 05:25:29 72° E 05:30:52 10° NNE
Cosmos 2237 Rocket 3.4 05:26:03 27° W 05:28:05 35° WNW 05:33:14 10° N
SJ 16-02 2.8 05:27:30 10° N 05:30:54 31° NE 05:30:54 31° NE
GP-B 4.2 05:30:59 10° NNE 05:34:10 37° NE 05:34:10 37° NE
Cosmos 2369 Rocket 4.1 05:37:12 10° N 05:41:36 22° NE 05:44:11 17° E
Cosmos 2034 Rocket 3.9 05:36:05 10° N 05:42:15 73° W 05:42:38 71° WSW
ALOS 2 3.5 05:43:59 45° NW 05:43:59 45° NW 05:47:13 10° NNW
USA 229 DEB 3.6 05:44:47 59° ESE 05:44:47 59° ESE 05:51:10 10° NE
USA 229 3.6 05:44:55 59° ESE 05:44:55 59° ESE 05:51:16 10° NE
GEOS 3 Rocket 3.8 05:47:15 64° W 05:47:15 64° W 05:52:04 10° NW
NOSS 3-1 (C) 3.1 05:53:14 73° WNW 05:53:20 74° NW 05:59:19 10° NNE
BREEZE-M DEB (TANK) 3.8 05:57:01 61° SSE 05:57:25 62° SE 06:14:49 10° NE
NOSS 2-3 (E) 4.4 06:04:41 46° N 06:04:41 46° N 06:08:08 10° NNE
Aureole 3 4.3 05:59:41 10° N 06:02:49 52° NNE 06:02:49 52° NNE
Cosmos 1892 4.5 06:05:52 30° NNE 06:05:52 30° NNE 06:08:02 10° NNE
NOSS 3-1 (A) 3.2 06:04:54 70° ENE 06:04:54 70° ENE 06:10:21 10° NE
Cosmos 2278 Rocket 3.8 06:00:54 10° NW 06:04:25 21° W 06:04:25 21° W
Tsikada Rocket 4.2 06:05:58 54° WSW 06:06:34 56° W 06:12:38 10° N
Cosmos 2297 3.6 06:01:35 10° NNW 06:07:10 85° NE 06:07:10 85° NE
USA 32 4.3 06:03:29 10° N 06:08:14 61° WNW 06:08:14 61° WNW
Cosmos 1763 Rocket 3.8 06:15:44 55° ENE 06:15:44 55° ENE 06:20:05 10° NNE
Cosmos 1758 Rocket 4.4 06:17:12 48° NNW 06:17:12 48° NNW 06:20:34 10° N
Thor Agena Rocket 4.0 06:18:50 10° N 06:23:55 52° WNW 06:23:56 52° WNW
Meteor 1-27 4.1 06:18:38 10° N 06:24:10 88° NNE 06:24:10 88° NNE
In-Cosmos 22 Rocket 4.1 06:26:02 86° ENE 06:26:02 86° ENE 06:31:30 10° N
Cosmos-2242 3.8 06:22:05 10° N 06:25:20 49° NNW 06:25:20 49° NNW
Resurs 1-4 Rocket 3.9 06:23:22 10° NE 06:27:15 20° E 06:27:37 20° E
Cosmos 1825 3.9 06:32:05 30° NE 06:32:05 30° NE 06:34:16 10° NNE
Cosmos 1943 Rocket 2.2 06:28:54 10° NNW 06:33:59 69° WNW 06:33:59 69° WNW
Cosmos 1408 4.3 06:36:19 31° N 06:36:19 31° N 06:38:23 10° N
PSLV R/B 4.4 06:30:48 10° N 06:34:18 46° NW 06:34:18 46° NW
X-37B 3.7 06:37:56 14° NE 06:37:56 14° NE 06:38:38 10° NE
Cosmos 1943 3.1 06:38:48 71° ESE 06:38:48 71° ESE 06:44:24 10° NNE
Cosmos 405 Rocket 4.2 06:44:03 34° N 06:44:03 34° N 06:46:13 10° N
USA 267 3.1 06:41:13 57° SSE 06:42:42 81° SW 06:49:17 10° NW
CZ-2D R/B 3.3 06:42:17 10° NE 06:46:48 29° E 06:47:12 29° ESE
Cosmos 1603 3.5 06:47:29 84° S 06:47:41 88° ESE 06:53:23 10° NNE
Cosmos 2058 3.8 06:49:06 45° NE 06:49:06 45° NE 06:52:09 10° NNE
Cosmos 540 Rocket 3.4 06:54:25 75° E 06:54:25 75° E 06:59:21 10° NNE
Cosmos 2221 3.4 06:51:50 10° N 06:55:40 44° ENE 06:55:40 44° ENE
Cosmos 2279 Rocket 4.0 06:52:35 10° NNW 06:58:44 64° W 06:59:19 61° WSW
DELTA 2 R/B (1) 3.4 06:59:52 86° SSW 06:59:57 87° SSE 07:05:31 10° ENE
USA 307 3.8 07:02:26 44° ENE 07:02:26 44° ENE 07:05:25 10° NE
Cosmos 990 Rocket 4.0 06:57:51 10° NNW 07:02:41 70° WNW 07:02:41 70° WNW
Cosmos 841 Rocket 3.4 07:03:21 79° ESE 07:03:21 79° ESE 07:08:31 10° NNE
YAOGAN 11 4.3 07:05:57 71° N 07:05:57 71° N 07:09:59 10° NNW
Cosmos 1633 4.3 07:09:34 28° ENE 07:09:34 28° ENE 07:11:51 10° NNE
SJ 16-02 3.6 07:06:35 10° NW 07:07:51 15° WNW 07:07:51 15° WNW
SL-16 R/B 4.3 07:07:19 13° W 07:09:55 16° NW 07:13:26 10° NNW
Cosmos 1656 Rocket 3.7 07:08:30 10° NNW 07:14:12 77° ENE 07:15:31 54° SE
USA 308 3.2 07:17:46 63° NE 07:17:46 63° NE 07:21:23 10° NE
Cosmos 1937 Rocket 3.4 07:11:48 10° NNW 07:17:09 84° ENE 07:17:48 69° SSE
Cosmos 1898 Rocket 3.4 07:12:03 10° NNW 07:17:07 68° W 07:17:07 68° W
Helios 1B rocket 3.4 07:15:41 10° NNE 07:19:18 38° E 07:19:18 38° E
USA 290 4.2 07:22:19 29° NE 07:22:19 29° NE 07:24:06 10° NNE
ARGOS Delta rocket 4.1 07:18:49 10° NNE 07:24:20 78° E 07:25:12 63° SSE
Cosmos 1606 3.4 07:20:45 10° N 07:24:03 52° NE 07:24:03 52° NE
Helios 1A 3.5 07:26:31 49° NW 07:26:31 49° NW 07:29:49 10° NNW
Cosmos 2369 Rocket 2.4 07:20:24 10° NNW 07:25:56 53° WSW 07:25:56 53° WSW
UNK 4.4 07:27:46 40° ESE 07:28:55 50° ENE 07:33:24 10° N
NOSS 2-2 (E) 4.0 07:30:03 45° N 07:30:03 45° N 07:32:47 10° NNE
CZ-4 R/B 4.4 07:25:45 10° N 07:30:10 43° WNW 07:30:18 43° WNW
Nadezhda 4 Rocket 4.0 07:29:04 52° SW 07:30:14 61° W 07:36:17 10° N
Cosmos 2026 Rocket 4.2 07:29:40 42° SSE 07:31:46 64° E 07:38:01 10° NNE
Cosmos 1814 Rocket 3.8 07:32:43 70° SW 07:33:19 83° WNW 07:38:32 10° NNE
ATLAS 5 CENTAUR R/B 1.4 07:34:05 71° NNE 07:34:05 71° NNE 07:37:53 10° NNE
USA 305 3.3 07:34:41 53° NW 07:34:51 54° NW 07:39:02 10° NE
Meteor 2-15 4.4 07:29:14 10° N 07:35:24 78° E 07:37:35 42° SSE
Cosmos 2263 4.2 07:34:45 10° NNW 07:40:17 56° WSW 07:40:42 54° SW
Meteor 1-29 4.5 07:38:25 10° NE 07:41:13 29° E 07:41:13 29° E
Lacrosse 4 Rocket 2.8 07:38:33 10° N 07:42:19 35° ENE 07:44:51 18° ESE
NOSS 2-2 (C) 3.7 07:43:31 50° N 07:43:31 50° N 07:46:28 10° NNE
Cosmos 1570 Rocket 4.0 07:43:24 57° WSW 07:44:14 67° WNW 07:49:27 10° NNE
SL-19 R/B 4.4 07:39:17 10° NNE 07:44:33 64° ESE 07:46:09 44° SSE
Cosmos 1437 Rocket 4.3 07:41:32 10° NNW 07:43:43 26° NW 07:43:43 26° NW
Aureole 3 Rocket 3.3 07:42:57 10° N 07:47:14 89° W 07:48:34 52° S
Cosmos 372 Rocket 3.9 07:45:59 10° NNW 07:51:15 84° WSW 07:52:44 48° S
Landsat 4 4.5 07:49:11 10° NNE 07:52:47 42° E 07:53:07 41° ESE
Cosmos 2098 Rocket 4.4 07:56:36 34° W 07:57:14 35° W 08:01:35 10° NNW
USA 306 4.0 07:56:16 31° WNW 07:57:22 37° NW 08:01:20 10° NNE
Cosmos 921 Rocket 4.0 07:59:46 31° WNW 07:59:54 31° WNW 08:03:40 10° N
ADEOS Rocket 3.7 07:53:19 13° SSE 07:59:55 66° ENE 08:06:35 10° N
Cosmos 2208 Rocket 4.2 07:58:36 46° WSW 07:59:56 61° WNW 08:05:21 10° N
SL-16 R/B 2.5 08:00:14 38° S 08:02:41 69° WSW 08:08:52 10° NNW
Resurs 1-4 Rocket 2.6 08:02:10 10° N 08:07:15 47° WNW 08:08:42 37° WSW
Cosmos 1092 Rocket 4.4 08:09:41 36° SW 08:11:37 48° W 08:17:33 10° N
Cosmos 2151 3.1 08:11:14 53° WSW 08:11:39 56° W 08:15:48 10° N
X-37B 2.6 08:10:20 10° NW 08:13:10 29° NNE 08:16:00 10° ENE
CZ-4C R/B 3.0 08:12:05 26° SSE 08:13:49 35° ESE 08:18:38 10° NE
Cosmos 1242 Rocket 4.4 08:14:03 10° NW 08:15:50 20° WNW 08:15:50 20° WNW
ADEOS II 2.0 08:13:09 10° NNE 08:18:26 82° WNW 08:20:33 38° SSW
NPP 4.2 08:14:57 10° N 08:20:06 46° WNW 08:21:57 33° WSW
Meteor 2-3 Rocket 3.7 08:20:40 36° SSW 08:23:00 73° W 08:28:35 10° N
IRIDIUM 106 4.3 08:19:36 10° N 08:24:51 80° E 08:27:59 25° S
CZ-2D R/B 3.1 08:22:14 10° N 08:26:47 31° WNW 08:28:31 25° WSW
AQUA 4.5 08:24:52 10° N 08:29:20 41° WNW 08:30:49 32° WSW
IDEFIX/ARIANE 42P 2.7 08:27:08 10° NNE 08:32:22 70° ESE 08:35:30 24° S
Cosmos 1812 4.5 08:29:09 10° NNE 08:32:34 30° ENE 08:35:57 10° SE
GPS 2-04 Rocket1 2.6 08:32:08 48° SW 08:32:53 59° S 08:36:42 10° ESE
ERBS 2.5 08:35:36 48° W 08:36:06 55° NW 08:39:17 10° NE
Cosmos 1655 Rocket 4.1 08:32:03 19° S 08:36:36 73° E 08:42:50 10° N
Delta 2 Rocket 3.8 08:37:21 37° S 08:37:56 39° SSE 08:41:33 10° E
Cosmos 1782 2.7 08:37:39 10° N 08:41:41 85° W 08:43:51 26° S
Cosmos 1271 Rocket 3.2 08:38:00 10° N 08:41:42 55° E 08:44:52 13° SSE
Cosmos 2084 Rocket 4.2 08:41:46 24° SSE 08:43:29 37° ESE 08:47:09 10° NE
CZ-4C R/B 3.4 08:42:57 15° SSE 08:45:38 61° ENE 08:49:03 10° N
DELTA 2 R/B (1) 3.6 08:40:58 10° W 08:46:32 80° N 08:52:06 10° E
Meteor 1-26 Rocket 4.3 08:41:55 10° NNW 08:47:46 66° W 08:52:29 17° S
CBERS-1 4.1 08:44:46 10° N 08:49:53 68° WNW 08:52:55 24° SSW
IRS-1D 3.8 08:45:31 10° N 08:50:28 52° WNW 08:53:07 26° SW
Helios 1B rocket 4.4 08:51:59 10° NNW 08:54:24 15° WNW 08:55:36 14° W
CZ-2C R/B 4.3 08:50:40 10° NE 08:54:44 26° E 08:58:40 10° SSE
IRS-1C 4.2 08:52:31 10° NNE 08:57:53 80° ESE 09:02:14 16° S
Tianhe-1 1.6 08:58:01 34° SSW 08:58:49 43° SSE 09:01:50 10° E
Cosmos 1328 Rocket 3.5 08:57:14 10° N 09:01:36 77° W 09:05:32 13° S
Spot 1 4.4 09:01:39 10° SSE 09:06:46 82° WSW 09:11:42 10° NNW
Meteor 1-28 Rocket 3.9 09:05:34 25° SW 09:07:01 34° W 09:10:30 10° NNW
ATLAS 2A CENTAUR R/B 4.0 09:06:09 17° S 09:07:27 19° SSE 09:12:42 10° ESE
Cosmos 773 Rocket 4.3 09:03:52 14° S 09:08:23 68° ESE 09:13:39 10° NNE
Cosmos 44 3.9 09:07:13 15° S 09:11:25 57° ESE 09:16:44 10° NE
Cosmos 1553 Rocket 4.5 09:05:49 10° NNW 09:11:36 41° W 09:16:15 15° SSW
MSX 3.9 09:07:53 10° N 09:13:37 70° WNW 09:18:34 14° SSW
SeaSat 1 2.6 09:11:47 10° NNE 09:16:39 61° WNW 09:20:26 17° SW
S3M 4.1 09:11:57 10° NNW 09:17:57 55° W 09:24:00 10° SSW
ATLAS 5 CENTAUR R/B 4.0 09:18:21 10° NW 09:19:08 10° NW 09:19:55 10° NNW
ALOS 4.2 09:16:04 10° NE 09:20:00 27° E 09:23:55 10° SSE
Lacrosse 4 Rocket 2.9 09:18:03 10° WNW 09:20:39 17° WSW 09:21:02 16° WSW
USA 281 3.2 09:15:21 10° SSE 09:21:53 69° WSW 09:28:27 10° NNW
Cosmos 1151 Rocket 3.9 09:20:32 10° NNW 09:24:15 30° W 09:27:04 15° SW
FALCON 9 DEB 4.0 09:24:02 10° WNW 09:26:58 27° SW 09:29:52 10° S
SL-4 R/B 4.2 09:26:11 10° NNW 09:29:03 23° NNE 09:31:51 10° E
Meteor 1-10 Rocket 4.3 09:23:55 10° N 09:29:48 86° W 09:35:31 10° S
Meteor 2-6 Rocket 4.3 09:25:41 10° NNW 09:31:28 62° W 09:37:03 10° S
Cosmos 1408 Rocket 4.2 09:29:02 14° SW 09:32:31 40° WNW 09:36:45 10° N
Cosmos 1833 Rocket 2.7 09:27:13 11° SSW 09:32:36 85° WNW 09:38:17 10° NNE
Cosmos 1515 Rocket 3.6 09:28:42 10° NNW 09:33:05 62° W 09:37:27 10° S
Cosmos 1862 4.1 09:30:48 15° SW 09:33:42 34° WNW 09:37:26 10° NNW
NOSS 3-4 (A) 3.9 09:30:02 10° SSW 09:35:39 56° ESE 09:41:33 10° NE
NOSS 3-4 (C) 3.9 09:30:10 10° SSW 09:35:46 55° ESE 09:41:40 10° NE
Cosmos 1125 Rocket 4.5 09:32:37 10° NW 09:37:03 28° W 09:41:28 10° SSW
Lacrosse 5 rocket 2.6 09:34:57 10° NNW 09:38:25 40° NE 09:41:59 10° ESE
CZ-4B R/B 3.8 09:35:39 10° N 09:40:46 54° WNW 09:45:47 10° SSW
BREEZE-M DEB (TANK) 2.6 09:38:51 11° WSW 09:43:07 87° SSE 09:45:56 10° ENE
ARIANE 5 R/B 2.9 09:38:42 10° N 09:43:28 46° WNW 09:48:14 10° SW
FENGYUN 3A 4.4 09:38:40 10° NNE 09:44:01 56° E 09:49:19 10° S
NOSS 3-2 (A) 4.2 09:37:19 10° NNW 09:45:09 90° ENE 09:53:53 10° SSE
Meteor 1-27 Rocket 3.9 09:40:01 10° N 09:45:35 79° E 09:51:05 10° SSE
ATLAS 2AS CENTAUR R/B 4.1 09:39:16 10° S 09:46:32 43° ESE 09:53:48 10° NE
Gbstr 26 Del rocket 4.0 09:42:09 10° SSW 09:46:36 50° SE 09:52:06 10° ENE
X-37B 0.5 09:46:51 10° WNW 09:50:01 72° SSW 09:53:10 10° SE
Cosmos 2082 Rocket 2.4 09:50:29 10° SSW 09:56:03 74° ESE 10:01:40 10° NNE
SL-08 ROCKET BODY 4.5 09:54:00 10° S 09:59:50 82° E 10:05:42 10° N
FALCON 9 DEB 2.8 09:57:13 10° NW 10:00:20 70° SW 10:03:25 10° SE
NOSS 7 (H) 4.5 09:58:04 10° SSW 10:02:04 89° WNW 10:05:12 10° NNE
CZ-4C R/B 3.3 09:58:01 10° WSW 10:02:17 29° NW 10:07:17 10° NNE
OAO 3 Rocket 3.8 10:01:15 10° WSW 10:05:44 43° SSE 10:10:18 10° E
